Torna al catalogo

STARLINK-1333

AttivoComunicazioniVLEO
NORAD 45580·PAYLOAD·🇺🇸 United States

Lanciato Apr 22, 2020 da Cape Canaveral Space Force Station

Loading…

Prossimi Passaggi (prossime 24 ore)

TLE

AggiornatoSource: CelesTrak SupGP

Epoca: Sep 14, 2026, 21:07 UTC

1 45580C 20025BB  26257.88034722  .00068478  00000+0  14713-2 0  2574
2 45580  53.1518 271.2168 0003575  54.5255 117.4076 15.44055192    13

Traccia STARLINK-1333 in tempo reale con AllMySat

Download on the App Store